Location: Delmar
(42.6220°N, 73.8326°W)
Time: 05:45:35
(UTC+00:00)

Cosmos 2227 Rocket - Pass Details

Date: 29 October 2020
Orbit: 839 x 845 km, 71.0° (Epoch: 27 November)

Event Time Altitude Azimuth Distance (km) Brightness Sun altitude
Rises 23:41:04 0° 329° (NNW) 3,406 5.8 -20.7°
Reaches altitude 10° 23:43:38 10° 322° (NW) 2,468 5.1 -21.2°
Maximum altitude 23:48:55 42° 254° (WSW) 1,185 3.4 -22.1°
Drops below altitude 10° 23:54:11 10° 184° (S) 2,456 4.6 -23.1°
Sets 23:56:44 0° 178° (S) 3,387 5.3 -23.6°
